Stündliche Wetter Centralina

Heute, 28 Januar, Donnerstag

Zeit Temperatur Niederschläge Wind Luftdruck Luftfeuchtigkeit
00:00 +24°C° 0.2 mm 2 m/S 716 mmHg 83%
01:00 +24°C° 0.2 mm 2 m/S 715 mmHg 86%
02:00 +23°C° 0.2 mm 2 m/S 715 mmHg 88%
03:00 +23°C° 0.2 mm 2 m/S 715 mmHg 91%
04:00 +23°C° 0 mm 2 m/S 715 mmHg 91%
05:00 +23°C° 0 mm 2 m/S 715 mmHg 91%
06:00 +21°C° 0 mm 2 m/S 715 mmHg 91%
07:00 +24°C° 0 mm 2 m/S 715 mmHg 85%
08:00 +25°C° 0 mm 3 m/S 716 mmHg 78%
09:00 +27°C° 0 mm 3 m/S 717 mmHg 71%
10:00 +28°C° 0 mm 4 m/S 717 mmHg 64%
11:00 +30°C° 0 mm 4 m/S 716 mmHg 57%
12:00 +32°C° 0 mm 4 m/S 716 mmHg 49%
13:00 +33°C° 0 mm 4 m/S 716 mmHg 49%
14:00 +33°C° 0 mm 3 m/S 715 mmHg 48%
15:00 +34°C° 0 mm 3 m/S 715 mmHg 47%
16:00 +32°C° 0 mm 2 m/S 714 mmHg 51%
17:00 +31°C° 0 mm 2 m/S 714 mmHg 55%
18:00 +30°C° 0 mm 1 m/S 713 mmHg 59%
19:00 +29°C° 0 mm 1 m/S 714 mmHg 61%
20:00 +28°C° 0 mm 1 m/S 714 mmHg 63%
21:00 +26°C° 0 mm 1 m/S 715 mmHg 65%
22:00 +26°C° 0 mm 2 m/S 715 mmHg 65%
23:00 +25°C° 0 mm 2 m/S 715 mmHg 66%

Morgen, 29 Januar, Freitag

Zeit Temperatur Niederschläge Wind Luftdruck Luftfeuchtigkeit
00:00 +24°C° 0 mm 2 m/S 715 mmHg 67%
01:00 +24°C° 0 mm 2 m/S 715 mmHg 68%
02:00 +23°C° 0 mm 2 m/S 715 mmHg 69%
03:00 +23°C° 0 mm 2 m/S 714 mmHg 70%
04:00 +23°C° 0 mm 2 m/S 715 mmHg 72%
05:00 +21°C° 0 mm 2 m/S 715 mmHg 73%
06:00 +21°C° 0 mm 2 m/S 715 mmHg 75%
07:00 +24°C° 0 mm 2 m/S 715 mmHg 70%
08:00 +26°C° 0 mm 3 m/S 716 mmHg 65%
09:00 +28°C° 0 mm 4 m/S 717 mmHg 60%
10:00 +29°C° 0 mm 4 m/S 717 mmHg 55%
11:00 +32°C° 0 mm 4 m/S 717 mmHg 51%
12:00 +34°C° 0 mm 4 m/S 716 mmHg 46%
13:00 +34°C° 0 mm 4 m/S 716 mmHg 44%
14:00 +35°C° 0 mm 3 m/S 715 mmHg 41%
15:00 +35°C° 0 mm 3 m/S 715 mmHg 38%
16:00 +34°C° 0 mm 2 m/S 714 mmHg 44%
17:00 +32°C° 0 mm 2 m/S 714 mmHg 49%
18:00 +31°C° 0 mm 1 m/S 714 mmHg 54%
19:00 +30°C° 0 mm 1 m/S 714 mmHg 57%
20:00 +28°C° 0 mm 1 m/S 715 mmHg 59%
21:00 +27°C° 0 mm 1 m/S 715 mmHg 61%
22:00 +26°C° 0 mm 1 m/S 715 mmHg 63%
23:00 +26°C° 0 mm 2 m/S 716 mmHg 65%

übermorgen, 30 Januar, Samstag

Zeit Temperatur Niederschläge Wind Luftdruck Luftfeuchtigkeit
00:00 +25°C° 0 mm 2 m/S 716 mmHg 67%
01:00 +25°C° 0 mm 2 m/S 716 mmHg 68%
02:00 +24°C° 0 mm 2 m/S 716 mmHg 70%
03:00 +24°C° 0 mm 2 m/S 715 mmHg 71%
04:00 +23°C° 0 mm 2 m/S 716 mmHg 73%
05:00 +23°C° 0 mm 2 m/S 716 mmHg 74%
06:00 +23°C° 0 mm 2 m/S 716 mmHg 76%
07:00 +25°C° 0 mm 3 m/S 717 mmHg 70%
08:00 +27°C° 0 mm 4 m/S 717 mmHg 63%
09:00 +29°C° 0 mm 5 m/S 718 mmHg 57%
10:00 +32°C° 0 mm 5 m/S 717 mmHg 52%
11:00 +33°C° 0 mm 5 m/S 717 mmHg 48%
12:00 +35°C° 0 mm 5 m/S 717 mmHg 43%
13:00 +35°C° 0 mm 4 m/S 717 mmHg 41%
14:00 +35°C° 0 mm 3 m/S 716 mmHg 39%
15:00 +36°C° 0 mm 3 m/S 715 mmHg 36%
16:00 +35°C° 0 mm 3 m/S 715 mmHg 42%
17:00 +34°C° 0 mm 2 m/S 715 mmHg 47%
18:00 +32°C° 0 mm 2 m/S 714 mmHg 52%
19:00 +30°C° 0 mm 2 m/S 715 mmHg 54%
20:00 +29°C° 0 mm 2 m/S 715 mmHg 56%
21:00 +27°C° 0 mm 2 m/S 716 mmHg 58%
22:00 +26°C° 0 mm 2 m/S 716 mmHg 60%
23:00 +26°C° 0 mm 2 m/S 716 mmHg 62%

31 Januar, Sonntag

Zeit Temperatur Niederschläge Wind Luftdruck Luftfeuchtigkeit
00:00 +25°C° 0 mm 2 m/S 716 mmHg 63%
01:00 +25°C° 0 mm 2 m/S 716 mmHg 65%
02:00 +25°C° 0 mm 2 m/S 716 mmHg 66%
03:00 +24°C° 0 mm 2 m/S 715 mmHg 67%
04:00 +24°C° 0 mm 2 m/S 716 mmHg 69%
05:00 +24°C° 0 mm 2 m/S 716 mmHg 70%
06:00 +23°C° 0 mm 2 m/S 716 mmHg 72%
07:00 +25°C° 0 mm 3 m/S 716 mmHg 67%
08:00 +27°C° 0 mm 4 m/S 717 mmHg 63%
09:00 +29°C° 0 mm 5 m/S 717 mmHg 58%
10:00 +32°C° 0 mm 4 m/S 717 mmHg 53%
11:00 +33°C° 0 mm 4 m/S 717 mmHg 48%
12:00 +35°C° 0 mm 4 m/S 717 mmHg 43%
13:00 +35°C° 0 mm 3 m/S 717 mmHg 41%
14:00 +35°C° 0 mm 2 m/S 716 mmHg 40%
15:00 +34°C° 0 mm 1 m/S 715 mmHg 39%
16:00 +33°C° 0 mm 1 m/S 715 mmHg 42%
17:00 +33°C° 0 mm 1 m/S 715 mmHg 46%
18:00 +32°C° 0 mm 1 m/S 715 mmHg 50%
19:00 +30°C° 0 mm 1 m/S 715 mmHg 52%
20:00 +29°C° 0 mm 1 m/S 715 mmHg 54%
21:00 +27°C° 0 mm 2 m/S 715 mmHg 57%
22:00 +27°C° 0 mm 2 m/S 715 mmHg 57%
23:00 +27°C° 0 mm 2 m/S 716 mmHg 57%

1 Februar, Montag

Zeit Temperatur Niederschläge Wind Luftdruck Luftfeuchtigkeit
00:00 +27°C° 0 mm 2 m/S 716 mmHg 57%
01:00 +26°C° 0 mm 2 m/S 716 mmHg 60%
02:00 +25°C° 0 mm 2 m/S 715 mmHg 63%
03:00 +24°C° 0 mm 2 m/S 715 mmHg 66%
04:00 +24°C° 0 mm 2 m/S 715 mmHg 68%
05:00 +24°C° 0 mm 2 m/S 715 mmHg 71%
06:00 +23°C° 0 mm 2 m/S 715 mmHg 73%
07:00 +26°C° 0 mm 3 m/S 716 mmHg 67%
08:00 +28°C° 0 mm 3 m/S 716 mmHg 62%
09:00 +30°C° 0 mm 4 m/S 717 mmHg 57%
10:00 +32°C° 0 mm 4 m/S 717 mmHg 53%
11:00 +34°C° 0 mm 3 m/S 717 mmHg 48%
12:00 +35°C° 0 mm 3 m/S 717 mmHg 44%
13:00 +35°C° 0 mm 3 m/S 716 mmHg 43%
14:00 +35°C° 0 mm 2 m/S 715 mmHg 42%
15:00 +34°C° 0 mm 1 m/S 715 mmHg 42%
16:00 +33°C° 0 mm 1 m/S 714 mmHg 46%
17:00 +32°C° 0 mm 2 m/S 714 mmHg 50%
18:00 +31°C° 0 mm 2 m/S 714 mmHg 54%
19:00 +30°C° 0 mm 2 m/S 714 mmHg 55%
20:00 +29°C° 0 mm 1 m/S 715 mmHg 56%
21:00 +28°C° 0 mm 1 m/S 715 mmHg 58%
22:00 +27°C° 0.1 mm 2 m/S 715 mmHg 59%
23:00 +27°C° 0.1 mm 2 m/S 716 mmHg 60%

2 Februar, Dienstag

Zeit Temperatur Niederschläge Wind Luftdruck Luftfeuchtigkeit
00:00 +27°C° 0.1 mm 3 m/S 716 mmHg 61%
01:00 +26°C° 0 mm 3 m/S 715 mmHg 66%
02:00 +25°C° 0 mm 3 m/S 715 mmHg 71%
03:00 +24°C° 0 mm 3 m/S 715 mmHg 77%
04:00 +24°C° 0 mm 2 m/S 715 mmHg 78%
05:00 +24°C° 0 mm 2 m/S 715 mmHg 79%
06:00 +24°C° 0 mm 2 m/S 715 mmHg 80%
07:00 +25°C° 0 mm 2 m/S 716 mmHg 74%
08:00 +27°C° 0 mm 3 m/S 717 mmHg 67%
09:00 +29°C° 0 mm 3 m/S 717 mmHg 61%
10:00 +31°C° 0.2 mm 3 m/S 717 mmHg 57%
11:00 +33°C° 0.2 mm 3 m/S 717 mmHg 52%
12:00 +34°C° 0.2 mm 3 m/S 717 mmHg 47%
13:00 +35°C° 0 mm 3 m/S 716 mmHg 45%
14:00 +35°C° 0 mm 3 m/S 715 mmHg 42%
15:00 +36°C° 0 mm 2 m/S 715 mmHg 40%
16:00 +35°C° 0 mm 2 m/S 715 mmHg 43%
17:00 +34°C° 0 mm 2 m/S 715 mmHg 46%
18:00 +33°C° 0 mm 1 m/S 714 mmHg 49%
19:00 +31°C° 0.2 mm 1 m/S 715 mmHg 55%
20:00 +29°C° 0.2 mm 2 m/S 715 mmHg 60%
21:00 +27°C° 0.2 mm 2 m/S 716 mmHg 66%
22:00 +26°C° 0.2 mm 2 m/S 716 mmHg 70%
23:00 +26°C° 0.2 mm 2 m/S 716 mmHg 74%
Mehr zeigen

Wir brauchen deine Erlaubnis

Meteoprog und unser Service Anbieter werden persönliche Daten aufbewahren, so wie Cookies, Geräte Bezeichnung oder ähnliche Technologien von deinem Gerät und Prozess, so wie Persönliche Daten Inhalte und Werbungen, genauso wie social Media und den Verkehr zu analysieren.

  • Aufbewahrung und/oder Zugang zu deiner Geräte Informationen.

    Cookies, Geräte Bezeichnung oder andere Informationen, können aufbewahrt oder Zugang zu deinem Gerät erhalten, für den Grund, der oben angegeben wird.

  • Personalisierte Werbung und Inhalte, Messungen, Einblick in das Publikum und Produkt Entwicklung.

    Werbungen und Inhalte können personalisiert werden, basierend auf ein Profil. Mehr Daten können besser personalisierte Werbungen und Inhalte hinzufügen. Werbung und Inhalte können gezeigt und gemessen werden. Einblicke über das Publikum, welche die Werbung gesehen haben und den Inhalt, können abgeleitet werden. So wie Daten können genutzt werden, um es zu verbessern oder die Benutzer Erfahrung zu verbessern das System und die Software.

Wenn du “Ich stimme zu” klickst, erlaubst du uns, die Cookies zu benutzen die Geräte Bezeichnung, den Web oder ähnliche Technologien zu benutzen. Deine Settings, können in deinem Gerät bei deinem Browser geändert werden.

Für den bestimmten Zweck, berechtigten Interessen beruhen darauf, mehr als auf den Inhalt. Du kannst mehr darüber in unseren Privaten und Cookie Politik lesen.